Date,TemperatureHighF,TemperatureAvgF,TemperatureLowF,DewpointHighF,DewpointAvgF,DewpointLowF,HumidityHigh,HumidityAvg,HumidityLow,PressureMaxIn,PressureMinIn,WindSpeedMaxMPH,WindSpeedAvgMPH,GustSpeedMaxMPH,PrecipitationSumIn
2013-1-3,42.1,37.1,33.3,39.4,34.4,30.0,91,90,83,30.36,30.29,5,1,17,0.02
2013-1-4,46.6,44.4,42.1,44.1,41.1,37.9,92,88,82,30.40,30.18,4,1,21,0.14
2013-1-5,46.6,43.9,40.8,43.7,40.3,37.8,91,87,84,30.32,30.16,6,2,21,0.00
2013-1-6,41.7,39.9,32.0,99.9,44.1,37.6,92,82,87,30.30,30.10,6,0,18,0.02
2013-1-7,43.2,40.0,37.8,40.1,37.6,35.6,92,91,89,30.31,30.17,3,0,10,0.10
2013-1-8,39.4,37.9,36.5,37.2,35.8,34.3,92,92,92,30.27,30.13,0,0,0,0.02
2013-1-9,39.2,38.5,37.0,37.0,36.3,34.7,92,92,91,30.16,29.88,1,0,7,0.00
2013-1-10,37.0,35.2,32.0,99.9,34.0,30.6,92,87,83,29.87,29.69,3,0,17,0.02
2013-1-11,34.5,27.2,23.9,31.8,22.3,18.3,91,83,77,29.98,29.69,6,1,18,0.00
2013-1-12,27.1,23.1,17.2,21.6,18.4,12.7,88,84,77,30.02,29.96,2,0,9,0.00
2013-1-13,25.7,22.9,17.2,21.9,19.1,13.3,88,87,83,30.02,29.98,0,0,85,0.00
2013-1-14,25.9,24.9,23.7,23.4,22.4,21.2,91,91,90,29.93,29.85,0,0,0,0.00
2013-1-15,32.0,23.4,19.0,99.9,22.2,16.0,91,88,88,29.87,29.71,0,0,0,0.00
2013-1-16,32.0,25.3,24.4,99.9,25.1,21.7,91,88,90,29.73,29.69,0,0,85,0.00
2013-1-17,25.9,25.0,23.7,23.0,22.3,20.7,91,90,89,29.86,29.71,0,0,0,0.00
2013-3-11,24.8,24.0,23.5,21.7,21.0,20.5,89,89,89,29.64,29.63,0,0,0,0.00
2013-3-12,32.0,23.9,23.4,99.9,21.6,20.3,90,88,89,29.63,29.56,0,0,0,0.00
2013-3-13,22.8,22.8,22.8,20.1,20.1,20.1,90,90,90,29.48,29.48,0,0,0,0.00
2013-3-14,25.3,18.0,14.7,17.8,13.3,10.6,87,83,75,29.77,29.69,0,0,114,0.08
2013-3-15,27.7,21.9,15.6,21.0,16.5,11.5,88,82,71,30.01,29.77,1,0,11,0.24
2013-3-16,32.7,22.1,10.4,22.6,14.9,6.1,84,75,66,30.05,29.94,0,0,0,0.08
2013-3-17,34.3,32.1,24.4,22.6,21.0,15.3,73,64,62,29.94,29.80,1,0,0,0.00
2013-3-18,33.4,28.8,27.0,99.9,26.2,22.3,91,84,79,29.63,29.26,0,0,0,0.16
2013-3-19,33.4,31.8,29.3,31.1,29.4,26.8,91,91,90,29.43,29.23,1,0,0,0.08
2013-3-20,35.8,35.8,35.8,33.1,33.1,33.1,90,90,90,29.75,29.75,0,0,0,0.00
2013-3-21,35.4,33.8,30.0,32.7,29.9,23.2,90,87,77,30.01,29.76,0,0,0,0.00
2013-3-22,28.9,27.7,27.7,23.4,23.0,21.6,84,84,76,30.02,30.02,0,0,0,0.00
2013-4-6,32.5,32.4,32.2,30.0,29.8,29.7,90,90,90,30.08,30.07,0,0,0,0.00
2013-4-7,38.8,33.7,28.8,30.2,27.9,23.2,89,80,63,30.11,30.00,0,0,57,0.00
2013-4-8,45.0,35.2,23.4,30.0,25.5,19.4,87,69,52,30.00,29.70,0,0,0,0.00
2013-4-9,45.5,38.7,34.3,39.4,33.3,26.8,90,81,69,29.71,29.64,1,0,0,0.51
2013-4-10,43.5,38.7,32.0,99.9,39.5,33.1,91,86,89,29.72,29.65,1,0,0,0.49
2013-4-26,65.3,62.9,61.0,53.4,51.2,50.2,76,66,58,29.65,29.62,0,0,0,0.02
2013-4-27,61.3,53.8,45.0,53.2,49.0,41.9,89,84,71,29.73,29.62,3,0,17,0.02
2013-4-28,48.0,44.7,41.7,42.4,40.6,37.9,90,86,79,30.01,29.71,1,0,8,0.02
2013-4-29,52.7,48.1,42.4,47.8,44.3,38.3,89,86,81,30.14,29.96,0,0,0,0.00
2013-4-30,59.0,51.2,46.2,51.3,45.4,0.1,90,82,14,30.15,25.41,0,0,0,0.04
2013-5-1,52.7,48.0,44.2,48.7,44.9,41.7,91,89,86,30.22,30.10,0,0,0,0.02
2013-5-2,58.1,51.7,47.5,54.0,48.8,45.0,91,90,86,30.14,30.01,0,0,0,0.02
2013-5-3,53.8,50.9,47.8,49.5,47.4,43.5,91,88,83,30.01,29.95,1,0,0,0.06
2013-5-4,59.9,50.2,43.9,52.5,46.0,41.2,91,86,75,30.12,30.00,1,0,11,0.19
2013-5-5,62.4,54.4,47.5,52.5,48.8,45.0,91,82,63,30.24,30.12,0,0,0,0.00
2013-5-6,59.5,55.7,50.4,55.4,51.6,46.6,91,86,80,30.21,30.02,0,0,0,0.04
2013-5-7,66.4,59.6,55.6,60.3,56.1,52.7,91,88,77,30.02,29.95,1,0,7,0.00
2013-5-17,64.2,60.9,59.7,55.9,55.0,53.8,85,81,69,29.59,29.56,0,0,0,0.00
2013-5-18,60.1,55.5,50.5,54.9,50.7,47.1,91,84,70,29.87,29.59,2,0,15,0.58
2013-5-19,68.9,56.7,50.9,56.8,51.2,46.8,90,82,65,29.86,29.66,2,0,20,0.60
2013-5-20,61.5,53.1,45.3,48.9,46.1,42.8,91,78,57,29.91,29.77,3,0,16,0.00
2013-5-21,61.7,53.8,45.7,49.6,45.4,40.5,85,74,58,29.93,29.80,5,1,20,0.00
2013-5-22,56.5,49.0,43.9,48.9,44.8,40.3,90,85,72,31.69,29.68,5,1,15,0.18
2013-5-23,49.1,45.0,41.9,41.7,39.7,37.8,88,82,70,29.85,24.04,0,0,0,0.00
2013-5-24,47.8,43.5,37.2,42.3,39.2,34.0,89,84,80,29.85,26.74,3,0,11,0.00
2013-5-25,41.2,40.3,39.0,37.9,37.0,35.8,88,88,87,29.85,29.81,0,0,0,0.00
2013-5-26,42.4,41.5,40.3,39.9,39.1,37.9,92,91,90,29.78,29.66,2,0,16,0.50
2013-5-27,49.3,46.2,41.5,47.1,44.0,39.4,92,92,91,29.82,29.63,1,0,11,0.22
2013-5-28,60.3,51.5,41.2,51.1,46.3,39.0,92,83,64,29.81,29.57,3,0,11,0.00
2013-5-29,58.1,52.2,48.0,54.5,49.3,45.1,91,90,84,29.67,29.54,2,0,0,0.20
2013-5-30,49.8,47.6,45.9,47.7,45.3,43.7,92,92,91,29.69,29.47,2,0,13,1.29
2013-5-31,52.3,50.5,47.5,50.4,48.5,45.3,93,93,92,29.69,29.43,0,0,0,0.12
2013-6-1,55.9,49.2,43.5,54.0,47.1,41.4,93,92,92,29.74,29.68,4,0,21,0.94
2013-6-2,52.3,48.5,45.9,50.4,46.6,43.9,93,93,92,30.05,29.72,4,2,21,0.22
2013-6-3,48.0,45.8,43.9,46.0,43.9,42.1,93,93,92,30.12,30.05,3,0,12,0.64
2013-6-4,54.5,50.5,46.8,52.2,48.4,44.8,94,93,92,30.11,30.05,2,0,8,0.14
2013-6-5,61.3,53.6,44.2,51.4,47.5,42.1,93,81,61,30.13,30.08,1,0,0,0.00
2013-6-6,61.9,55.7,48.7,56.3,51.8,45.7,92,87,78,30.17,30.11,0,0,0,0.00
2013-6-7,68.5,60.0,51.1,60.6,55.4,48.6,92,85,70,30.16,30.08,0,0,0,0.00
2013-6-8,70.0,62.5,52.5,61.9,57.2,49.6,91,83,71,30.11,29.94,0,0,0,0.00
2013-6-9,70.9,62.5,55.0,63.9,58.2,52.5,91,86,75,29.91,29.76,5,0,16,0.38
2013-6-10,59.2,55.8,53.1,56.5,53.3,50.5,91,91,91,29.90,29.74,1,0,0,0.21
2013-6-11,64.8,57.8,49.1,54.0,50.6,46.6,91,78,58,30.09,29.90,1,0,0,0.00
2013-6-12,67.8,59.9,49.1,54.3,51.2,45.5,89,74,57,30.16,30.09,1,0,0,0.00
2013-6-13,76.3,64.3,50.2,60.8,55.0,46.4,89,73,55,30.16,29.94,2,0,7,0.00
2013-6-14,62.4,59.5,56.7,56.1,53.7,49.8,84,81,77,30.09,29.94,2,0,0,0.00
2013-6-15,71.6,61.9,51.4,60.4,53.8,46.4,86,75,59,30.08,29.96,2,0,8,0.00
2013-6-16,73.6,64.7,56.5,58.6,54.1,49.8,85,70,51,30.08,30.00,2,0,57,0.00
2013-6-17,79.5,69.0,57.4,68.2,60.1,51.3,80,73,64,30.08,30.00,0,0,0,0.00
2013-6-18,86.5,74.4,62.4,75.6,67.5,58.5,88,79,60,30.08,30.00,0,0,0,0.00
2013-6-19,86.4,77.2,67.6,75.4,69.2,63.3,88,77,59,30.08,29.96,1,0,0,0.00
2013-6-20,86.9,77.2,68.9,75.2,69.5,61.0,87,78,63,29.98,29.82,2,0,8,0.00
2013-6-22,73.8,67.5,59.9,61.3,58.8,55.8,87,74,61,30.07,29.97,1,0,7,0.00
2013-6-23,71.4,64.5,57.2,60.4,56.7,51.1,87,76,60,30.03,29.93,3,0,9,0.00
2013-6-24,60.8,57.3,54.5,53.8,52.1,49.6,89,83,70,30.08,30.01,0,0,0,0.14
2013-6-25,55.9,51.9,48.4,52.7,49.1,45.5,91,90,89,30.17,30.03,2,1,13,0.93
2013-6-26,52.5,49.4,47.8,47.1,45.6,44.1,91,87,78,30.26,30.14,3,1,9,0.04
2013-6-27,56.5,51.7,46.4,49.3,46.4,43.0,89,82,73,30.26,30.18,1,0,0,0.00
2013-6-28,61.9,54.5,43.3,51.8,47.7,40.3,90,78,60,30.18,30.09,1,0,0,0.00
2013-6-29,61.5,55.0,46.4,53.4,49.0,43.0,89,81,67,30.12,30.01,2,0,9,0.04
2013-6-30,61.7,54.2,46.8,50.7,45.6,41.9,88,74,57,30.20,30.11,3,1,10,0.00
2013-7-1,72.1,60.4,47.7,56.3,50.9,43.3,87,72,52,30.15,30.05,2,0,10,0.00
2013-7-2,77.5,63.6,50.5,61.3,53.7,46.8,88,72,45,30.06,29.97,2,0,12,0.00
2013-7-3,75.7,65.1,54.7,63.9,57.9,50.5,88,78,61,30.00,29.92,1,0,6,0.00
2013-7-4,71.1,64.8,58.8,61.9,58.8,55.2,88,81,69,30.24,30.00,2,0,7,0.00
2013-7-5,69.4,64.1,60.3,61.9,59.4,56.3,89,85,75,30.33,30.24,0,0,8,0.02
2013-7-6,70.9,67.3,61.9,61.0,59.3,56.3,82,76,71,30.40,30.35,0,0,0,0.00
2013-7-7,72.3,66.4,58.8,67.8,56.5,53.4,86,71,54,30.41,30.36,0,0,0,0.00
2013-7-8,72.3,65.3,56.8,59.5,55.7,50.7,84,72,59,30.42,30.33,0,0,57,0.00
2013-7-9,75.2,68.1,55.6,60.6,57.7,51.1,87,70,56,30.34,30.14,30,0,114,0.00
2013-7-10,75.6,66.6,56.5,60.3,57.1,52.3,87,73,56,30.14,29.97,1,0,0,0.00
2013-7-11,60.8,57.8,53.8,53.6,50.6,48.6,84,77,71,30.10,30.02,2,0,57,0.00
2013-7-12,67.6,61.2,54.3,52.9,50.8,48.0,82,69,56,30.14,30.09,2,0,13,0.00
2013-7-13,69.6,59.7,47.5,55.6,50.9,43.5,87,74,58,30.16,30.12,1,0,9,0.00
2013-7-14,71.6,61.7,49.3,57.7,53.2,45.3,89,74,57,30.17,30.11,2,0,11,0.00
2013-7-15,69.4,62.0,54.1,56.1,52.4,48.7,86,72,53,30.23,30.13,3,0,57,0.00
2013-7-16,74.5,63.1,47.8,56.8,52.1,44.2,88,69,50,30.27,30.19,2,0,6,0.00
2013-7-17,76.5,66.1,53.2,59.7,54.8,48.6,87,68,48,30.22,30.18,0,0,0,0.00
2013-7-18,77.7,68.4,55.4,60.3,56.8,50.5,85,68,51,30.23,30.16,0,0,0,0.00
2013-7-19,78.6,69.5,57.7,60.1,57.5,52.9,85,67,51,30.20,30.09,1,0,7,0.00
2013-7-20,73.9,65.8,56.5,59.7,56.4,51.6,86,72,57,30.17,30.11,0,0,0,0.00
2013-7-21,77.4,68.7,58.8,58.6,55.6,53.1,83,65,46,30.22,30.15,0,0,0,0.00
2013-7-22,81.3,69.3,54.1,58.5,54.5,49.5,85,62,39,30.16,30.02,0,0,0,0.00
2013-7-23,63.5,59.6,56.8,54.3,52.6,51.3,82,77,72,30.03,30.00,0,0,0,0.00
2013-7-25,69.1,69.1,69.1,61.5,61.5,61.5,77,77,77,30.05,30.05,0,0,0,0.00
2013-7-30,66.7,65.2,63.7,56.3,55.8,55.2,74,72,69,30.12,30.09,0,0,0,0.00
2013-7-31,73.6,67.0,61.2,61.5,58.5,55.6,85,75,61,30.15,30.09,5,2,21,0.00
2013-8-1,80.4,66.2,55.9,63.3,57.8,51.8,88,76,50,30.16,30.07,1,0,0,0.00
2013-8-2,88.7,75.0,59.0,65.8,61.1,54.5,87,64,40,30.09,30.00,0,0,0,0.00
2013-8-3,78.6,66.6,61.3,65.5,59.9,56.5,85,79,64,30.06,30.00,0,0,0,0.00
2013-8-7,78.6,73.8,71.2,68.4,66.3,65.1,81,77,71,29.92,29.88,0,0,0,0.00
2013-8-8,80.1,72.4,65.1,67.8,64.9,61.2,87,78,62,30.08,29.87,2,0,10,0.00
2013-8-9,68.7,61.7,56.1,62.6,57.2,52.9,89,85,77,30.15,30.08,0,0,7,0.65
2013-8-10,72.5,60.9,52.2,61.2,55.1,49.3,91,82,61,30.16,30.06,2,0,13,0.27
2013-8-11,69.6,59.3,51.4,61.9,53.2,47.7,90,79,61,30.11,30.05,57,1,85,0.00
2013-8-12,71.8,60.0,47.1,57.7,51.9,43.5,89,76,58,30.11,29.95,2,0,0,0.00
2013-8-13,68.5,59.9,53.2,54.5,51.1,48.0,88,74,51,30.12,29.94,4,1,16,0.00
2013-8-14,65.7,57.9,49.8,50.4,47.8,45.1,86,70,52,30.24,30.12,3,0,10,0.00
2013-8-15,68.9,55.2,43.9,50.0,45.2,39.7,87,71,46,30.26,30.20,1,0,0,0.00
2013-8-16,73.0,61.5,47.5,53.8,49.2,43.2,85,66,47,30.22,30.10,0,0,0,0.00
2013-8-17,78.1,64.6,50.4,59.0,53.3,45.5,87,68,47,30.10,30.00,0,0,57,1.30
2013-8-18,81.7,68.6,55.2,63.3,57.6,50.7,87,69,49,30.05,29.98,1,0,9,0.00
2013-8-19,70.5,62.8,58.1,62.1,58.0,55.2,90,84,69,30.12,30.00,2,0,11,0.50
2013-8-20,61.5,56.3,52.0,55.2,52.7,48.9,90,88,78,30.37,30.12,3,0,10,0.08
2013-8-21,64.6,55.7,45.3,55.0,49.1,42.3,91,79,60,30.36,30.24,0,0,0,0.00
2013-8-22,66.4,57.3,48.0,54.7,50.1,44.6,90,78,62,30.24,27.29,0,0,0,0.00
2013-8-23,68.0,59.5,52.3,55.6,52.1,48.0,87,77,61,30.14,30.07,0,0,0,0.00
2013-8-24,70.0,62.7,54.7,57.0,54.0,50.5,87,74,58,30.10,29.92,1,0,6,0.00
2013-8-25,59.5,56.6,55.0,54.0,52.5,50.7,91,86,80,29.93,29.88,0,0,0,0.26
2013-8-26,59.0,56.2,54.5,55.0,53.0,52.2,92,89,81,30.03,29.92,1,0,0,0.47
2013-8-27,60.1,56.4,53.4,54.3,51.9,49.6,88,85,79,30.02,29.97,0,0,0,0.00